Regional Weather Roundup
Issued by NWS

Home | Current Version | Previous Version | Graphics & Text | Print | Product List | Glossary On
Versions: 1 2 3 4 5 6 7 8 9 10 11 12 13 14 15 16 17 18 19 20 21 22 23 24 25 26 27 28 29 30 31 32 33 34 35 36 37 38 39 40 41 42 43 44 45 46 47 48 49 50
000
ASUS45 KCYS 030610
RWRWY

WYOMING REGIONAL WEATHER ROUNDUP
NATIONAL WEATHER SERVICE CHEYENNE WY
1200 AM MDT MON AUG 03 2015

NOTE:  "FAIR" INDICATES FEW OR NO CLOUDS BELOW 12,000 FEET
WITH NO SIGNIFICANT WEATHER AND/OR OBSTRUCTIONS TO VISIBILITY.

WYZ001-030700-
YELLOWSTONE NATIONAL PARK

CITY           SKY/WX    TMP DP  RH WIND       PRES   REMARKS
LK YELLOWSTONE   N/A     50  35  56 CALM      30.27S
6HR MIN TEMP:  50; 6HR MAX TEMP:  78;

W YELLOWSTONE  NOT AVBL

$$
WYZ002>013-054>058-071-098>099-030700-
NORTHERN WYOMING

CITY           SKY/WX    TMP DP  RH WIND       PRES   REMARKS
JACKSON        NOT AVBL
CODY           FAIR      68  39  34 CALM      30.08F
GREYBULL       FAIR      76  37  24 CALM      29.95R
6HR MIN TEMP:  76; 6HR MAX TEMP:  96;

WORLAND        FAIR      73  36  25 CALM      29.99R
6HR MIN TEMP:  65; 6HR MAX TEMP:  95;

SHERIDAN       FAIR      60  46  59 CALM      30.05R
6HR MIN TEMP:  60; 6HR MAX TEMP:  90;

BUFFALO        FAIR      65  43  44 W6        30.12S
6HR MIN TEMP:  63; 6HR MAX TEMP:  86;

GILLETTE       FAIR      58  49  72 SW3       30.06S
6HR MIN TEMP:  58; 6HR MAX TEMP:  88;

HULETT         FAIR      68  46  45 SE8       30.08S
NEWCASTLE      FAIR      64  46  52 CALM      30.07S

$$
WYZ014>020-022>026-101>103-030700-
CENTRAL WYOMING

CITY           SKY/WX    TMP DP  RH WIND       PRES   REMARKS
BIG PINEY      FAIR      62  29  28 E7        30.17S
6HR MIN TEMP:  62; 6HR MAX TEMP:  87;

PINEDALE       FAIR      68  25  19 CALM      30.18S
DUBOIS         FAIR      59  25  27 NW3       30.21S
LANDER         FAIR      73  32  22 VRB3      30.08R
6HR MIN TEMP:  69; 6HR MAX TEMP:  91;

RIVERTON       FAIR      74  36  25 E12G20    30.08R
6HR MIN TEMP:  73; 6HR MAX TEMP:  90;

CASPER         FAIR      70  51  51 E14       30.08R
6HR MIN TEMP:  70; 6HR MAX TEMP:  94;

DOUGLAS        FAIR      68  54  60 E14       30.08S
6HR MIN TEMP:  68; 6HR MAX TEMP:  90;


$$
WYZ021-027>030-104>119-030700-
SOUTHERN WYOMING

CITY           SKY/WX    TMP DP  RH WIND       PRES   REMARKS
EVANSTON       FAIR      65  42  43 S13       30.18S
6HR MIN TEMP:  65; 6HR MAX TEMP:  78;

KEMMERER       FAIR      68  37  32 S6        30.17S
FORT BRIDGER   MOCLDY    72  39  30 W17       30.18R
ROCK SPRINGS   FAIR      67  46  47 S17G29    30.14F
6HR MIN TEMP:  67; 6HR MAX TEMP:  85; 6HR PCP: TRACE;

DIXON          FAIR      65  49  57 CALM      30.21R
RAWLINS        FAIR      70  43  37 W15G24    30.19R
6HR MIN TEMP:  70; 6HR MAX TEMP:  88;

SARATOGA       FAIR      68  41  37 S5        30.20S
LARAMIE        FAIR      62  45  53 SE3       30.21S
6HR MIN TEMP:  62; 6HR MAX TEMP:  78;

CHEYENNE       FAIR      66  50  56 W3        30.14S
6HR MIN TEMP:  66; 6HR MAX TEMP:  84;

TORRINGTON     FAIR      66  55  67 NE10      30.00S
6HR MIN TEMP:  65; 6HR MAX TEMP:  93;

PINE BLUFFS    FAIR      63  50  63 S6        30.09S

$$


USA.gov is the U.S. government's official web portal to all federal, state and local government web resources and services.